Wetterdaten: Samstag, 16.03.2019
Datum Zeit Temp. I. Temp. A. Boden 5 cm Feuchte A. Sonne Luftdruck Regen Wind Sonnenschein Zeit Regen
16.03.2019 00:00 19,7 C 10,5 C 6,4 C 81 % 3 % 1010 hPa 0,0 l/m 48,4 km/h (6 Bft) 0 min 0 min
16.03.2019 00:03 19,6 C 10,6 C 6,5 C 79 % 3 % 1010 hPa 0,0 l/m 64,5 km/h (8 Bft) 0 min 0 min
16.03.2019 00:06 19,6 C 10,6 C 6,4 C 79 % 3 % 1010 hPa 0,0 l/m 44,2 km/h (6 Bft) 0 min 0 min
16.03.2019 00:09 20,0 C 10,6 C 6,4 C 79 % 2 % 1010 hPa 0,0 l/m 45,5 km/h (6 Bft) 0 min 0 min
16.03.2019 00:12 20,0 C 10,6 C 6,4 C 79 % 2 % 1010 hPa 0,0 l/m 51,5 km/h (7 Bft) 0 min 0 min
16.03.2019 00:15 20,8 C 10,6 C 6,4 C 80 % 2 % 1010 hPa 0,0 l/m 44,0 km/h (6 Bft) 0 min 0 min
16.03.2019 00:18 20,9 C 10,6 C 6,5 C 80 % 2 % 1010 hPa 0,0 l/m 40,1 km/h (6 Bft) 0 min 0 min
16.03.2019 00:21 21,1 C 10,6 C 6,5 C 79 % 2 % 1010 hPa 0,0 l/m 40,1 km/h (6 Bft) 0 min 0 min
16.03.2019 00:24 21,2 C 10,6 C 6,5 C 80 % 2 % 1010 hPa 0,0 l/m 41,2 km/h (6 Bft) 0 min 0 min
16.03.2019 00:27 21,3 C 10,6 C 6,6 C 79 % 2 % 1010 hPa 0,0 l/m 36,0 km/h (5 Bft) 0 min 0 min
16.03.2019 00:30 21,4 C 10,7 C 6,6 C 79 % 2 % 1010 hPa 0,0 l/m 57,6 km/h (7 Bft) 0 min 0 min
16.03.2019 00:33 21,6 C 10,6 C 6,5 C 79 % 2 % 1010 hPa 0,0 l/m 43,6 km/h (6 Bft) 0 min 0 min
16.03.2019 00:36 21,7 C 10,6 C 6,7 C 79 % 2 % 1010 hPa 0,0 l/m 43,2 km/h (6 Bft) 0 min 0 min
16.03.2019 00:39 21,8 C 10,7 C 6,6 C 78 % 2 % 1010 hPa 0,0 l/m 43,2 km/h (6 Bft) 0 min 0 min
16.03.2019 00:42 22,0 C 10,8 C 6,6 C 78 % 2 % 1010 hPa 0,0 l/m 59,5 km/h (7 Bft) 0 min 0 min
16.03.2019 00:45 22,0 C 10,8 C 6,6 C 78 % 2 % 1010 hPa 0,0 l/m 60,0 km/h (7 Bft) 0 min 0 min
16.03.2019 00:51 21,9 C 10,8 C 6,6 C 78 % 2 % 1010 hPa 0,0 l/m 49,1 km/h (6 Bft) 0 min 0 min
16.03.2019 00:54 21,9 C 10,8 C 6,7 C 78 % 2 % 1010 hPa 0,0 l/m 56,5 km/h (7 Bft) 0 min 0 min
16.03.2019 00:57 21,8 C 10,8 C 6,7 C 78 % 1 % 1010 hPa 0,0 l/m 48,9 km/h (6 Bft) 0 min 0 min
16.03.2019 01:00 21,8 C 10,8 C 6,6 C 78 % 1 % 1010 hPa 0,0 l/m 48,3 km/h (6 Bft) 0 min 0 min
16.03.2019 01:03 21,7 C 10,7 C 6,6 C 78 % 1 % 1010 hPa 0,0 l/m 49,4 km/h (6 Bft) 0 min 0 min
16.03.2019 01:06 21,7 C 10,7 C 6,6 C 78 % 1 % 1010 hPa 0,0 l/m 56,4 km/h (7 Bft) 0 min 0 min
16.03.2019 01:09 21,7 C 10,8 C 6,6 C 77 % 1 % 1010 hPa 0,0 l/m 53,8 km/h (7 Bft) 0 min 0 min
16.03.2019 01:12 21,7 C 10,8 C 6,6 C 77 % 1 % 1010 hPa 0,0 l/m 47,7 km/h (6 Bft) 0 min 0 min
16.03.2019 01:15 21,7 C 10,8 C 6,7 C 77 % 1 % 1010 hPa 0,0 l/m 51,2 km/h (7 Bft) 0 min 0 min
16.03.2019 01:18 21,7 C 10,8 C 6,7 C 77 % 1 % 1010 hPa 0,0 l/m 51,1 km/h (7 Bft) 0 min 0 min
16.03.2019 01:21 21,7 C 10,8 C 6,8 C 76 % 1 % 1010 hPa 0,0 l/m 53,1 km/h (7 Bft) 0 min 0 min
16.03.2019 01:24 21,6 C 10,9 C 6,7 C 76 % 1 % 1011 hPa 0,0 l/m 41,7 km/h (6 Bft) 0 min 0 min
16.03.2019 01:27 21,6 C 11,0 C 6,8 C 76 % 1 % 1011 hPa 0,0 l/m 43,4 km/h (6 Bft) 0 min 0 min
16.03.2019 01:30 21,6 C 11,0 C 6,8 C 76 % 1 % 1011 hPa 0,0 l/m 44,7 km/h (6 Bft) 0 min 0 min
16.03.2019 01:33 21,6 C 11,0 C 6,9 C 76 % 1 % 1011 hPa 0,0 l/m 56,5 km/h (7 Bft) 0 min 0 min
16.03.2019 01:36 21,6 C 10,9 C 6,8 C 76 % 1 % 1011 hPa 0,0 l/m 42,0 km/h (6 Bft) 0 min 0 min
16.03.2019 01:39 21,5 C 11,0 C 6,8 C 76 % 1 % 1011 hPa 0,0 l/m 37,5 km/h (5 Bft) 0 min 0 min
16.03.2019 01:42 21,5 C 11,0 C 6,8 C 76 % 1 % 1011 hPa 0,0 l/m 47,0 km/h (6 Bft) 0 min 0 min
16.03.2019 01:45 21,5 C 11,0 C 6,8 C 76 % 1 % 1011 hPa 0,0 l/m 43,1 km/h (6 Bft) 0 min 0 min
16.03.2019 01:48 21,5 C 11,0 C 6,8 C 76 % 1 % 1011 hPa 0,0 l/m 42,6 km/h (6 Bft) 0 min 0 min
16.03.2019 01:51 21,5 C 11,0 C 6,9 C 76 % 1 % 1011 hPa 0,0 l/m 47,3 km/h (6 Bft) 0 min 0 min
16.03.2019 01:54 21,5 C 11,0 C 7,0 C 76 % 1 % 1011 hPa 0,0 l/m 42,3 km/h (6 Bft) 0 min 0 min
16.03.2019 01:57 21,5 C 11,0 C 7,0 C 76 % 1 % 1011 hPa 0,0 l/m 59,1 km/h (7 Bft) 0 min 0 min
16.03.2019 02:00 21,5 C 10,9 C 6,8 C 77 % 1 % 1011 hPa 0,0 l/m 35,8 km/h (5 Bft) 0 min 0 min
16.03.2019 02:03 21,5 C 10,9 C 6,8 C 77 % 1 % 1011 hPa 0,0 l/m 35,8 km/h (5 Bft) 0 min 0 min
16.03.2019 02:06 21,5 C 10,9 C 6,9 C 76 % 1 % 1011 hPa 0,0 l/m 49,4 km/h (6 Bft) 0 min 0 min
16.03.2019 02:09 21,5 C 11,0 C 6,9 C 76 % 1 % 1011 hPa 0,0 l/m 48,5 km/h (6 Bft) 0 min 0 min
16.03.2019 02:12 21,5 C 10,9 C 6,9 C 77 % 1 % 1011 hPa 0,0 l/m 52,8 km/h (7 Bft) 0 min 0 min
16.03.2019 02:15 21,5 C 10,9 C 7,0 C 77 % 1 % 1011 hPa 0,0 l/m 56,3 km/h (7 Bft) 0 min 0 min
16.03.2019 02:18 21,6 C 10,9 C 6,8 C 77 % 1 % 1011 hPa 0,0 l/m 52,7 km/h (7 Bft) 0 min 0 min
16.03.2019 02:21 21,6 C 10,9 C 6,8 C 77 % 1 % 1011 hPa 0,0 l/m 48,0 km/h (6 Bft) 0 min 0 min
16.03.2019 02:24 21,6 C 10,9 C 6,8 C 77 % 1 % 1011 hPa 0,0 l/m 45,8 km/h (6 Bft) 0 min 0 min
16.03.2019 02:27 21,6 C 10,8 C 6,8 C 78 % 1 % 1011 hPa 0,0 l/m 45,8 km/h (6 Bft) 0 min 0 min
16.03.2019 02:30 21,6 C 10,8 C 6,8 C 78 % 1 % 1011 hPa 0,0 l/m 43,4 km/h (6 Bft) 0 min 0 min
16.03.2019 02:33 21,6 C 10,8 C 6,8 C 78 % 1 % 1011 hPa 0,0 l/m 47,5 km/h (6 Bft) 0 min 0 min
16.03.2019 02:36 21,6 C 10,8 C 6,7 C 78 % 1 % 1011 hPa 0,0 l/m 53,6 km/h (7 Bft) 0 min 0 min
16.03.2019 02:39 21,6 C 10,8 C 6,8 C 78 % 1 % 1011 hPa 0,0 l/m 56,7 km/h (7 Bft) 0 min 0 min
16.03.2019 02:42 21,6 C 10,8 C 6,9 C 77 % 1 % 1011 hPa 0,0 l/m 41,7 km/h (6 Bft) 0 min 0 min
16.03.2019 02:45 21,6 C 10,9 C 6,9 C 77 % 1 % 1011 hPa 0,0 l/m 55,6 km/h (7 Bft) 0 min 0 min
16.03.2019 02:48 21,7 C 10,9 C 6,9 C 76 % 1 % 1011 hPa 0,0 l/m 50,1 km/h (7 Bft) 0 min 0 min
16.03.2019 02:51 21,6 C 10,9 C 6,9 C 76 % 1 % 1011 hPa 0,0 l/m 48,6 km/h (6 Bft) 0 min 0 min
16.03.2019 02:54 21,7 C 11,0 C 6,9 C 75 % 1 % 1011 hPa 0,0 l/m 56,6 km/h (7 Bft) 0 min 0 min
16.03.2019 02:57 21,7 C 11,0 C 6,9 C 75 % 1 % 1011 hPa 0,0 l/m 42,4 km/h (6 Bft) 0 min 0 min
16.03.2019 03:00 21,7 C 11,0 C 7,1 C 76 % 1 % 1011 hPa 0,0 l/m 49,5 km/h (6 Bft) 0 min 0 min
16.03.2019 03:03 21,7 C 11,0 C 7,0 C 76 % 1 % 1011 hPa 0,0 l/m 47,8 km/h (6 Bft) 0 min 0 min
16.03.2019 03:06 21,6 C 11,0 C 6,8 C 76 % 1 % 1011 hPa 0,0 l/m 41,9 km/h (6 Bft) 0 min 0 min
16.03.2019 03:09 21,7 C 10,9 C 6,9 C 76 % 1 % 1011 hPa 0,0 l/m 40,1 km/h (6 Bft) 0 min 0 min
16.03.2019 03:12 21,7 C 10,9 C 6,8 C 77 % 1 % 1011 hPa 0,0 l/m 46,7 km/h (6 Bft) 0 min 0 min
16.03.2019 03:15 21,7 C 10,8 C 6,8 C 77 % 1 % 1011 hPa 0,0 l/m 45,7 km/h (6 Bft) 0 min 0 min
16.03.2019 03:18 21,6 C 10,8 C 6,8 C 77 % 1 % 1011 hPa 0,0 l/m 44,5 km/h (6 Bft) 0 min 0 min
16.03.2019 03:21 21,7 C 10,8 C 6,8 C 77 % 1 % 1011 hPa 0,0 l/m 46,4 km/h (6 Bft) 0 min 0 min
16.03.2019 03:24 21,7 C 10,8 C 6,8 C 77 % 1 % 1011 hPa 0,0 l/m 54,6 km/h (7 Bft) 0 min 0 min
16.03.2019 03:27 21,6 C 10,8 C 6,8 C 77 % 1 % 1011 hPa 0,0 l/m 36,9 km/h (5 Bft) 0 min 0 min
16.03.2019 03:30 21,6 C 10,7 C 6,8 C 78 % 1 % 1011 hPa 0,0 l/m 44,6 km/h (6 Bft) 0 min 0 min
16.03.2019 03:33 21,6 C 10,6 C 6,8 C 78 % 1 % 1011 hPa 0,0 l/m 51,1 km/h (7 Bft) 0 min 0 min
16.03.2019 03:36 21,5 C 10,6 C 6,8 C 78 % 1 % 1011 hPa 0,0 l/m 50,0 km/h (6 Bft) 0 min 0 min
16.03.2019 03:39 21,6 C 10,5 C 6,7 C 79 % 1 % 1011 hPa 0,0 l/m 50,4 km/h (7 Bft) 0 min 0 min
16.03.2019 03:42 21,5 C 10,4 C 6,7 C 79 % 1 % 1011 hPa 0,0 l/m 51,6 km/h (7 Bft) 0 min 0 min
16.03.2019 03:45 21,5 C 10,4 C 6,7 C 79 % 1 % 1011 hPa 0,0 l/m 39,8 km/h (6 Bft) 0 min 0 min
16.03.2019 03:48 21,5 C 10,4 C 6,6 C 79 % 1 % 1011 hPa 0,0 l/m 40,1 km/h (6 Bft) 0 min 0 min
16.03.2019 03:51 21,5 C 10,4 C 6,6 C 79 % 1 % 1011 hPa 0,0 l/m 44,6 km/h (6 Bft) 0 min 0 min
16.03.2019 03:54 21,5 C 10,4 C 6,6 C 78 % 1 % 1011 hPa 0,0 l/m 59,1 km/h (7 Bft) 0 min 0 min
16.03.2019 03:57 21,5 C 10,4 C 6,6 C 79 % 1 % 1011 hPa 0,0 l/m 43,2 km/h (6 Bft) 0 min 0 min
16.03.2019 04:00 21,5 C 10,4 C 6,6 C 79 % 1 % 1011 hPa 0,0 l/m 54,1 km/h (7 Bft) 0 min 0 min
16.03.2019 04:03 21,5 C 10,3 C 6,6 C 79 % 1 % 1011 hPa 0,0 l/m 40,5 km/h (6 Bft) 0 min 0 min
16.03.2019 04:06 21,5 C 10,4 C 6,6 C 79 % 1 % 1011 hPa 0,0 l/m 42,2 km/h (6 Bft) 0 min 0 min
16.03.2019 04:09 21,5 C 10,4 C 6,7 C 79 % 1 % 1011 hPa 0,0 l/m 46,3 km/h (6 Bft) 0 min 0 min
16.03.2019 04:12 21,5 C 10,4 C 6,6 C 78 % 1 % 1011 hPa 0,0 l/m 50,7 km/h (7 Bft) 0 min 0 min
16.03.2019 04:15 21,4 C 10,4 C 6,6 C 78 % 1 % 1011 hPa 0,0 l/m 54,5 km/h (7 Bft) 0 min 0 min
16.03.2019 04:18 21,4 C 10,4 C 6,6 C 78 % 1 % 1011 hPa 0,0 l/m 54,5 km/h (7 Bft) 0 min 0 min
16.03.2019 04:21 21,3 C 10,4 C 6,7 C 78 % 1 % 1011 hPa 0,0 l/m 47,7 km/h (6 Bft) 0 min 0 min
16.03.2019 04:24 21,4 C 10,5 C 6,7 C 78 % 1 % 1011 hPa 0,0 l/m 42,6 km/h (6 Bft) 0 min 0 min
16.03.2019 04:27 21,4 C 10,4 C 6,6 C 78 % 1 % 1011 hPa 0,0 l/m 42,6 km/h (6 Bft) 0 min 0 min
16.03.2019 04:30 21,3 C 10,4 C 6,6 C 78 % 1 % 1011 hPa 0,0 l/m 46,1 km/h (6 Bft) 0 min 0 min
16.03.2019 04:33 21,4 C 10,4 C 6,6 C 78 % 1 % 1011 hPa 0,0 l/m 44,2 km/h (6 Bft) 0 min 0 min
16.03.2019 04:36 21,4 C 10,3 C 6,6 C 79 % 1 % 1011 hPa 0,0 l/m 38,1 km/h (5 Bft) 0 min 0 min
16.03.2019 04:39 21,4 C 10,2 C 6,6 C 80 % 1 % 1011 hPa 0,0 l/m 48,7 km/h (6 Bft) 0 min 0 min
16.03.2019 04:42 21,4 C 10,2 C 6,6 C 80 % 1 % 1011 hPa 0,0 l/m 58,7 km/h (7 Bft) 0 min 0 min
16.03.2019 04:45 21,4 C 10,2 C 6,6 C 80 % 1 % 1011 hPa 0,0 l/m 54,9 km/h (7 Bft) 0 min 0 min
16.03.2019 04:48 21,4 C 10,2 C 6,6 C 80 % 1 % 1011 hPa 0,0 l/m 46,2 km/h (6 Bft) 0 min 0 min
16.03.2019 04:51 21,4 C 10,2 C 6,6 C 80 % 1 % 1011 hPa 0,0 l/m 50,7 km/h (7 Bft) 0 min 0 min
16.03.2019 04:54 21,4 C 10,2 C 6,6 C 80 % 1 % 1011 hPa 0,0 l/m 44,6 km/h (6 Bft) 0 min 0 min
16.03.2019 04:57 21,4 C 10,2 C 6,6 C 79 % 1 % 1012 hPa 0,0 l/m 44,3 km/h (6 Bft) 0 min 0 min
16.03.2019 05:00 21,4 C 10,2 C 6,6 C 79 % 1 % 1012 hPa 0,0 l/m 54,0 km/h (7 Bft) 0 min 0 min
16.03.2019 05:03 21,3 C 10,2 C 6,6 C 79 % 1 % 1012 hPa 0,0 l/m 43,0 km/h (6 Bft) 0 min 0 min
16.03.2019 05:06 21,4 C 10,2 C 6,6 C 79 % 1 % 1012 hPa 0,0 l/m 44,5 km/h (6 Bft) 0 min 0 min
16.03.2019 05:09 21,3 C 10,2 C 6,6 C 79 % 1 % 1012 hPa 0,0 l/m 44,5 km/h (6 Bft) 0 min 0 min
16.03.2019 05:12 21,3 C 10,2 C 6,6 C 79 % 1 % 1012 hPa 0,0 l/m 54,5 km/h (7 Bft) 0 min 0 min
16.03.2019 05:15 21,3 C 10,2 C 6,6 C 79 % 1 % 1012 hPa 0,0 l/m 47,2 km/h (6 Bft) 0 min 0 min
16.03.2019 05:18 21,3 C 10,3 C 6,6 C 79 % 1 % 1012 hPa 0,0 l/m 53,3 km/h (7 Bft) 0 min 0 min
16.03.2019 05:21 21,3 C 10,2 C 6,6 C 80 % 1 % 1012 hPa 0,0 l/m 58,2 km/h (7 Bft) 0 min 0 min
16.03.2019 05:24 21,3 C 10,2 C 6,5 C 80 % 1 % 1012 hPa 0,0 l/m 50,0 km/h (6 Bft) 0 min 0 min
16.03.2019 05:27 21,3 C 10,1 C 6,5 C 80 % 1 % 1012 hPa 0,0 l/m 47,4 km/h (6 Bft) 0 min 0 min
16.03.2019 05:30 21,2 C 10,0 C 6,4 C 81 % 1 % 1012 hPa 0,0 l/m 48,9 km/h (6 Bft) 0 min 0 min
16.03.2019 05:33 21,2 C 9,9 C 6,4 C 82 % 1 % 1012 hPa 0,0 l/m 54,8 km/h (7 Bft) 0 min 0 min
16.03.2019 05:36 21,2 C 9,9 C 6,4 C 82 % 1 % 1012 hPa 0,0 l/m 41,5 km/h (6 Bft) 0 min 0 min
16.03.2019 05:39 21,2 C 9,9 C 6,5 C 81 % 1 % 1012 hPa 0,0 l/m 45,9 km/h (6 Bft) 0 min 0 min
16.03.2019 05:42 21,2 C 10,0 C 6,4 C 81 % 1 % 1012 hPa 0,0 l/m 45,9 km/h (6 Bft) 0 min 0 min
16.03.2019 05:45 21,2 C 10,0 C 6,5 C 80 % 1 % 1012 hPa 0,0 l/m 49,1 km/h (6 Bft) 0 min 0 min
16.03.2019 05:48 21,2 C 10,0 C 6,5 C 80 % 1 % 1012 hPa 0,0 l/m 42,5 km/h (6 Bft) 0 min 0 min
16.03.2019 05:51 21,2 C 10,0 C 6,5 C 80 % 1 % 1012 hPa 0,0 l/m 41,8 km/h (6 Bft) 0 min 0 min
16.03.2019 05:54 21,2 C 10,0 C 6,6 C 80 % 1 % 1012 hPa 0,0 l/m 48,3 km/h (6 Bft) 0 min 0 min
16.03.2019 05:57 21,2 C 10,0 C 6,5 C 80 % 1 % 1012 hPa 0,0 l/m 52,3 km/h (7 Bft) 0 min 0 min
16.03.2019 06:00 21,2 C 10,0 C 6,5 C 80 % 2 % 1012 hPa 0,0 l/m 50,1 km/h (7 Bft) 0 min 0 min
16.03.2019 06:03 21,2 C 10,0 C 6,5 C 80 % 2 % 1012 hPa 0,0 l/m 50,1 km/h (7 Bft) 0 min 0 min
16.03.2019 06:06 21,2 C 10,0 C 6,4 C 80 % 2 % 1012 hPa 0,0 l/m 50,1 km/h (7 Bft) 0 min 0 min
16.03.2019 06:09 21,2 C 9,9 C 6,4 C 80 % 2 % 1012 hPa 0,0 l/m 45,8 km/h (6 Bft) 0 min 0 min
16.03.2019 06:12 21,2 C 9,9 C 6,4 C 81 % 2 % 1012 hPa 0,0 l/m 43,2 km/h (6 Bft) 0 min 0 min
16.03.2019 06:15 21,2 C 9,9 C 6,4 C 81 % 2 % 1012 hPa 0,0 l/m 41,1 km/h (6 Bft) 0 min 0 min
16.03.2019 06:18 21,2 C 9,9 C 6,4 C 81 % 2 % 1012 hPa 0,0 l/m 46,2 km/h (6 Bft) 0 min 0 min
16.03.2019 06:21 21,2 C 9,9 C 6,4 C 80 % 3 % 1012 hPa 0,0 l/m 43,6 km/h (6 Bft) 0 min 0 min
16.03.2019 06:24 21,2 C 10,0 C 6,5 C 79 % 3 % 1012 hPa 0,0 l/m 36,3 km/h (5 Bft) 0 min 0 min
16.03.2019 06:27 21,2 C 10,0 C 6,5 C 79 % 3 % 1012 hPa 0,0 l/m 32,6 km/h (5 Bft) 0 min 0 min
16.03.2019 06:30 21,2 C 10,0 C 6,6 C 79 % 3 % 1012 hPa 0,0 l/m 31,3 km/h (5 Bft) 3 min 0 min
16.03.2019 06:33 21,2 C 10,0 C 6,5 C 78 % 3 % 1012 hPa 0,0 l/m 46,3 km/h (6 Bft) 3 min 0 min
16.03.2019 06:36 21,2 C 10,1 C 6,5 C 78 % 3 % 1013 hPa 0,0 l/m 46,4 km/h (6 Bft) 0 min 0 min
16.03.2019 06:39 21,2 C 10,1 C 6,5 C 78 % 3 % 1013 hPa 0,0 l/m 47,7 km/h (6 Bft) 0 min 0 min
16.03.2019 06:42 21,2 C 10,1 C 6,6 C 77 % 4 % 1013 hPa 0,0 l/m 49,4 km/h (6 Bft) 0 min 0 min
16.03.2019 06:45 21,1 C 10,1 C 6,6 C 77 % 4 % 1013 hPa 0,0 l/m 55,6 km/h (7 Bft) 0 min 0 min
16.03.2019 06:48 21,2 C 10,1 C 6,6 C 77 % 4 % 1013 hPa 0,0 l/m 43,6 km/h (6 Bft) 0 min 0 min
16.03.2019 06:51 21,1 C 10,1 C 6,7 C 77 % 4 % 1013 hPa 0,0 l/m 54,4 km/h (7 Bft) 0 min 0 min
16.03.2019 06:54 21,1 C 10,2 C 6,7 C 77 % 4 % 1013 hPa 0,0 l/m 38,2 km/h (5 Bft) 0 min 0 min
16.03.2019 06:57 21,1 C 10,3 C 6,7 C 77 % 4 % 1013 hPa 0,0 l/m 48,3 km/h (6 Bft) 0 min 0 min
16.03.2019 07:00 21,1 C 10,3 C 6,6 C 77 % 4 % 1013 hPa 0,0 l/m 33,6 km/h (5 Bft) 0 min 0 min
16.03.2019 07:03 21,1 C 10,2 C 6,6 C 77 % 4 % 1013 hPa 0,0 l/m 30,8 km/h (5 Bft) 0 min 0 min
16.03.2019 07:06 21,1 C 10,2 C 6,6 C 77 % 4 % 1013 hPa 0,0 l/m 31,1 km/h (5 Bft) 0 min 0 min
16.03.2019 07:09 21,1 C 10,3 C 6,7 C 77 % 5 % 1013 hPa 0,0 l/m 43,1 km/h (6 Bft) 0 min 0 min
16.03.2019 07:12 21,1 C 10,3 C 6,6 C 76 % 5 % 1013 hPa 0,0 l/m 43,2 km/h (6 Bft) 0 min 0 min
16.03.2019 07:15 21,1 C 10,3 C 6,6 C 76 % 5 % 1013 hPa 0,0 l/m 55,7 km/h (7 Bft) 0 min 0 min
16.03.2019 07:18 21,2 C 10,4 C 6,7 C 76 % 5 % 1013 hPa 0,0 l/m 47,2 km/h (6 Bft) 0 min 0 min
16.03.2019 07:21 21,1 C 10,4 C 6,7 C 76 % 6 % 1013 hPa 0,0 l/m 38,9 km/h (6 Bft) 0 min 0 min
16.03.2019 07:24 21,1 C 10,3 C 6,7 C 77 % 7 % 1013 hPa 0,0 l/m 36,7 km/h (5 Bft) 0 min 0 min
16.03.2019 07:27 21,2 C 10,2 C 6,6 C 78 % 9 % 1013 hPa 0,0 l/m 43,8 km/h (6 Bft) 0 min 0 min
16.03.2019 07:30 21,1 C 10,2 C 6,7 C 78 % 9 % 1013 hPa 0,0 l/m 39,7 km/h (6 Bft) 0 min 0 min
16.03.2019 07:33 21,2 C 10,2 C 6,6 C 78 % 10 % 1013 hPa 0,0 l/m 42,7 km/h (6 Bft) 0 min 0 min
16.03.2019 07:36 21,2 C 10,3 C 6,6 C 78 % 10 % 1013 hPa 0,0 l/m 35,8 km/h (5 Bft) 0 min 0 min
16.03.2019 07:39 21,1 C 10,3 C 6,6 C 78 % 7 % 1013 hPa 0,0 l/m 33,2 km/h (5 Bft) 0 min 0 min
16.03.2019 07:42 21,1 C 10,3 C 6,6 C 78 % 7 % 1013 hPa 0,0 l/m 32,1 km/h (5 Bft) 0 min 0 min
16.03.2019 07:45 21,1 C 10,2 C 6,7 C 78 % 8 % 1013 hPa 0,0 l/m 31,6 km/h (5 Bft) 0 min 0 min
16.03.2019 07:48 21,1 C 10,2 C 6,7 C 77 % 9 % 1013 hPa 0,0 l/m 40,4 km/h (6 Bft) 0 min 0 min
16.03.2019 07:51 21,1 C 10,3 C 6,6 C 77 % 8 % 1013 hPa 0,0 l/m 38,4 km/h (5 Bft) 0 min 0 min
16.03.2019 07:54 21,1 C 10,3 C 6,7 C 77 % 8 % 1014 hPa 0,0 l/m 43,2 km/h (6 Bft) 0 min 0 min
16.03.2019 07:57 21,1 C 10,4 C 6,7 C 78 % 10 % 1014 hPa 0,0 l/m 28,9 km/h (5 Bft) 0 min 0 min
16.03.2019 08:00 21,1 C 10,3 C 6,7 C 78 % 10 % 1014 hPa 0,0 l/m 43,6 km/h (6 Bft) 0 min 0 min
16.03.2019 08:03 21,1 C 10,4 C 6,7 C 77 % 10 % 1014 hPa 0,0 l/m 28,0 km/h (4 Bft) 0 min 0 min
16.03.2019 08:06 21,1 C 10,4 C 6,8 C 76 % 11 % 1014 hPa 0,0 l/m 37,2 km/h (5 Bft) 0 min 0 min
16.03.2019 08:09 21,1 C 10,4 C 6,8 C 76 % 9 % 1014 hPa 0,0 l/m 44,4 km/h (6 Bft) 0 min 0 min
16.03.2019 08:12 21,1 C 10,5 C 6,8 C 76 % 9 % 1014 hPa 0,0 l/m 35,1 km/h (5 Bft) 0 min 0 min
16.03.2019 08:15 21,1 C 10,5 C 6,9 C 75 % 12 % 1014 hPa 0,0 l/m 32,5 km/h (5 Bft) 0 min 0 min
16.03.2019 08:18 21,1 C 10,6 C 6,9 C 75 % 12 % 1014 hPa 0,0 l/m 38,7 km/h (5 Bft) 0 min 0 min
16.03.2019 08:21 21,1 C 10,8 C 7,0 C 74 % 11 % 1014 hPa 0,0 l/m 44,3 km/h (6 Bft) 0 min 0 min
16.03.2019 08:24 21,1 C 10,8 C 7,1 C 73 % 17 % 1014 hPa 0,0 l/m 43,4 km/h (6 Bft) 0 min 0 min
16.03.2019 08:27 21,1 C 10,8 C 7,2 C 73 % 18 % 1014 hPa 0,0 l/m 46,8 km/h (6 Bft) 0 min 0 min
16.03.2019 08:30 21,0 C 11,1 C 7,3 C 73 % 19 % 1014 hPa 0,0 l/m 35,4 km/h (5 Bft) 0 min 0 min
16.03.2019 08:33 21,0 C 11,0 C 7,2 C 72 % 19 % 1014 hPa 0,0 l/m 41,7 km/h (6 Bft) 0 min 0 min
16.03.2019 08:36 21,1 C 11,2 C 7,3 C 72 % 20 % 1014 hPa 0,0 l/m 38,1 km/h (5 Bft) 0 min 0 min
16.03.2019 08:39 21,0 C 11,2 C 7,3 C 72 % 21 % 1014 hPa 0,0 l/m 39,7 km/h (6 Bft) 0 min 0 min
16.03.2019 08:42 21,0 C 11,2 C 7,3 C 72 % 22 % 1014 hPa 0,0 l/m 45,6 km/h (6 Bft) 0 min 0 min
16.03.2019 08:45 21,1 C 11,2 C 7,4 C 72 % 23 % 1014 hPa 0,0 l/m 52,6 km/h (7 Bft) 0 min 0 min
16.03.2019 08:48 21,1 C 11,2 C 7,4 C 72 % 24 % 1014 hPa 0,0 l/m 51,1 km/h (7 Bft) 0 min 0 min
16.03.2019 08:51 21,0 C 11,2 C 7,5 C 73 % 23 % 1014 hPa 0,0 l/m 35,1 km/h (5 Bft) 0 min 0 min
16.03.2019 08:54 21,0 C 11,2 C 7,5 C 71 % 24 % 1014 hPa 0,0 l/m 48,8 km/h (6 Bft) 0 min 0 min
16.03.2019 08:57 21,1 C 11,3 C 7,5 C 72 % 24 % 1014 hPa 0,0 l/m 50,0 km/h (6 Bft) 0 min 0 min
16.03.2019 09:00 21,1 C 11,3 C 7,5 C 72 % 22 % 1014 hPa 0,0 l/m 40,4 km/h (6 Bft) 0 min 0 min
16.03.2019 09:03 21,1 C 11,3 C 7,5 C 72 % 20 % 1014 hPa 0,0 l/m 39,3 km/h (6 Bft) 0 min 0 min
16.03.2019 09:06 21,0 C 11,3 C 7,5 C 72 % 20 % 1014 hPa 0,0 l/m 36,4 km/h (5 Bft) 0 min 0 min
16.03.2019 09:09 21,0 C 11,3 C 7,5 C 72 % 20 % 1014 hPa 0,0 l/m 44,4 km/h (6 Bft) 0 min 0 min
16.03.2019 09:12 21,1 C 11,2 C 7,4 C 73 % 22 % 1014 hPa 0,0 l/m 31,7 km/h (5 Bft) 0 min 0 min
16.03.2019 09:15 21,0 C 11,2 C 7,5 C 73 % 23 % 1014 hPa 0,0 l/m 36,5 km/h (5 Bft) 0 min 0 min
16.03.2019 09:18 21,1 C 11,2 C 7,5 C 72 % 21 % 1014 hPa 0,0 l/m 38,6 km/h (5 Bft) 0 min 0 min
16.03.2019 09:21 21,1 C 11,2 C 7,4 C 72 % 23 % 1014 hPa 0,0 l/m 37,2 km/h (5 Bft) 0 min 0 min
16.03.2019 09:24 21,0 C 11,2 C 7,5 C 71 % 19 % 1014 hPa 0,0 l/m 38,6 km/h (5 Bft) 0 min 0 min
16.03.2019 09:27 21,0 C 11,3 C 7,4 C 72 % 18 % 1014 hPa 0,0 l/m 45,9 km/h (6 Bft) 0 min 0 min
16.03.2019 09:30 21,0 C 11,3 C 7,4 C 72 % 22 % 1014 hPa 0,0 l/m 37,0 km/h (5 Bft) 0 min 0 min
16.03.2019 09:33 21,0 C 11,3 C 7,4 C 71 % 18 % 1014 hPa 0,0 l/m 47,9 km/h (6 Bft) 0 min 0 min
16.03.2019 09:36 21,0 C 11,3 C 7,3 C 71 % 16 % 1014 hPa 0,0 l/m 42,1 km/h (6 Bft) 0 min 0 min
16.03.2019 09:39 21,0 C 11,3 C 7,3 C 71 % 16 % 1014 hPa 0,0 l/m 41,6 km/h (6 Bft) 0 min 0 min
16.03.2019 09:42 21,0 C 11,3 C 7,4 C 72 % 16 % 1014 hPa 0,0 l/m 41,6 km/h (6 Bft) 0 min 0 min
16.03.2019 09:45 21,0 C 11,3 C 7,5 C 70 % 16 % 1014 hPa 0,0 l/m 43,2 km/h (6 Bft) 0 min 0 min
16.03.2019 09:48 21,0 C 11,3 C 7,4 C 70 % 16 % 1014 hPa 0,0 l/m 43,2 km/h (6 Bft) 0 min 0 min
16.03.2019 09:51 21,0 C 11,3 C 7,5 C 71 % 14 % 1014 hPa 0,0 l/m 35,7 km/h (5 Bft) 0 min 0 min
16.03.2019 09:54 21,0 C 11,3 C 7,3 C 71 % 15 % 1014 hPa 0,0 l/m 49,3 km/h (6 Bft) 0 min 0 min
16.03.2019 09:57 21,0 C 11,3 C 7,4 C 70 % 15 % 1014 hPa 0,0 l/m 36,3 km/h (5 Bft) 0 min 0 min
16.03.2019 10:00 21,0 C 11,3 C 7,5 C 70 % 18 % 1014 hPa 0,0 l/m 30,3 km/h (5 Bft) 0 min 0 min
16.03.2019 10:03 21,1 C 11,4 C 7,6 C 70 % 21 % 1014 hPa 0,0 l/m 42,8 km/h (6 Bft) 0 min 0 min
16.03.2019 10:06 21,1 C 11,4 C 7,5 C 70 % 24 % 1014 hPa 0,0 l/m 40,2 km/h (6 Bft) 0 min 0 min
16.03.2019 10:09 21,0 C 11,5 C 7,7 C 69 % 25 % 1014 hPa 0,0 l/m 47,3 km/h (6 Bft) 0 min 0 min
16.03.2019 10:12 21,0 C 11,5 C 7,6 C 71 % 21 % 1014 hPa 0,0 l/m 37,6 km/h (5 Bft) 0 min 0 min
16.03.2019 10:15 21,0 C 11,5 C 7,6 C 70 % 23 % 1015 hPa 0,0 l/m 37,6 km/h (5 Bft) 0 min 0 min
16.03.2019 10:18 21,0 C 11,5 C 7,8 C 70 % 24 % 1015 hPa 0,0 l/m 32,4 km/h (5 Bft) 0 min 0 min
16.03.2019 10:21 21,0 C 11,6 C 7,8 C 70 % 30 % 1015 hPa 0,0 l/m 28,8 km/h (4 Bft) 0 min 0 min
16.03.2019 10:24 21,0 C 11,7 C 7,9 C 69 % 31 % 1015 hPa 0,0 l/m 38,4 km/h (5 Bft) 0 min 0 min
16.03.2019 10:27 21,0 C 11,8 C 7,9 C 69 % 31 % 1015 hPa 0,0 l/m 36,6 km/h (5 Bft) 0 min 0 min
16.03.2019 10:30 21,0 C 11,8 C 8,1 C 69 % 37 % 1015 hPa 0,0 l/m 36,2 km/h (5 Bft) 0 min 0 min
16.03.2019 10:33 21,0 C 12,0 C 8,2 C 70 % 36 % 1015 hPa 0,0 l/m 36,2 km/h (5 Bft) 0 min 0 min
16.03.2019 10:36 21,0 C 12,0 C 8,2 C 69 % 36 % 1015 hPa 0,0 l/m 37,3 km/h (5 Bft) 0 min 0 min
16.03.2019 10:39 21,0 C 12,1 C 8,3 C 68 % 40 % 1015 hPa 0,0 l/m 37,3 km/h (5 Bft) 0 min 0 min
16.03.2019 10:42 21,0 C 12,2 C 8,2 C 69 % 40 % 1015 hPa 0,0 l/m 37,8 km/h (5 Bft) 0 min 0 min
16.03.2019 10:45 21,0 C 12,2 C 8,2 C 68 % 36 % 1015 hPa 0,0 l/m 32,7 km/h (5 Bft) 0 min 0 min
16.03.2019 10:48 21,0 C 12,3 C 8,4 C 68 % 30 % 1015 hPa 0,0 l/m 36,6 km/h (5 Bft) 0 min 0 min
16.03.2019 10:51 21,0 C 12,3 C 8,4 C 69 % 33 % 1015 hPa 0,0 l/m 27,2 km/h (4 Bft) 0 min 0 min
16.03.2019 10:54 21,0 C 12,3 C 8,4 C 67 % 36 % 1015 hPa 0,0 l/m 38,1 km/h (5 Bft) 0 min 0 min
16.03.2019 10:57 21,1 C 12,4 C 8,4 C 68 % 35 % 1015 hPa 0,0 l/m 38,6 km/h (5 Bft) 0 min 0 min
16.03.2019 11:00 21,1 C 12,4 C 8,3 C 68 % 29 % 1015 hPa 0,0 l/m 38,6 km/h (5 Bft) 0 min 0 min
16.03.2019 11:03 21,0 C 12,4 C 8,2 C 68 % 23 % 1015 hPa 0,0 l/m 34,5 km/h (5 Bft) 0 min 0 min
16.03.2019 11:06 21,0 C 12,3 C 8,2 C 68 % 22 % 1015 hPa 0,0 l/m 40,2 km/h (6 Bft) 0 min 0 min
16.03.2019 11:09 21,0 C 12,2 C 8,2 C 68 % 21 % 1015 hPa 0,0 l/m 40,2 km/h (6 Bft) 0 min 0 min
16.03.2019 11:12 21,0 C 12,2 C 8,1 C 69 % 20 % 1015 hPa 0,0 l/m 27,1 km/h (4 Bft) 0 min 0 min
16.03.2019 11:15 21,0 C 12,1 C 8,0 C 69 % 20 % 1015 hPa 0,0 l/m 27,8 km/h (4 Bft) 0 min 0 min
16.03.2019 11:18 21,0 C 12,1 C 8,1 C 69 % 21 % 1015 hPa 0,0 l/m 26,1 km/h (4 Bft) 0 min 0 min
16.03.2019 11:21 21,0 C 12,0 C 7,9 C 68 % 18 % 1015 hPa 0,0 l/m 34,9 km/h (5 Bft) 0 min 0 min
16.03.2019 11:24 21,0 C 12,0 C 8,0 C 69 % 19 % 1015 hPa 0,0 l/m 39,4 km/h (6 Bft) 0 min 0 min
16.03.2019 11:27 21,0 C 12,0 C 7,9 C 69 % 20 % 1015 hPa 0,0 l/m 34,8 km/h (5 Bft) 0 min 0 min
16.03.2019 11:30 21,0 C 12,0 C 7,9 C 69 % 23 % 1015 hPa 0,0 l/m 39,0 km/h (6 Bft) 0 min 0 min
16.03.2019 11:33 21,0 C 12,0 C 8,0 C 70 % 23 % 1015 hPa 0,0 l/m 39,0 km/h (6 Bft) 0 min 0 min
16.03.2019 11:36 20,9 C 12,0 C 8,0 C 69 % 21 % 1015 hPa 0,0 l/m 32,9 km/h (5 Bft) 0 min 0 min
16.03.2019 11:39 20,8 C 12,0 C 7,9 C 68 % 24 % 1015 hPa 0,0 l/m 30,6 km/h (5 Bft) 0 min 0 min
16.03.2019 11:42 20,8 C 12,0 C 8,0 C 68 % 28 % 1015 hPa 0,0 l/m 30,6 km/h (5 Bft) 0 min 0 min
16.03.2019 11:45 20,8 C 12,1 C 8,0 C 69 % 28 % 1015 hPa 0,0 l/m 30,7 km/h (5 Bft) 0 min 0 min
16.03.2019 11:48 20,9 C 12,2 C 8,1 C 69 % 29 % 1015 hPa 0,0 l/m 26,0 km/h (4 Bft) 0 min 0 min
16.03.2019 11:51 20,9 C 12,2 C 8,2 C 69 % 25 % 1015 hPa 0,0 l/m 19,6 km/h (3 Bft) 0 min 0 min
16.03.2019 11:54 20,9 C 12,2 C 8,2 C 68 % 15 % 1015 hPa 0,0 l/m 26,9 km/h (4 Bft) 0 min 0 min
16.03.2019 11:57 20,9 C 12,1 C 7,9 C 67 % 16 % 1015 hPa 0,0 l/m 26,5 km/h (4 Bft) 0 min 0 min
16.03.2019 12:00 20,9 C 12,0 C 7,9 C 67 % 17 % 1015 hPa 0,0 l/m 26,5 km/h (4 Bft) 0 min 0 min
16.03.2019 12:03 21,0 C 12,1 C 8,0 C 68 % 15 % 1015 hPa 0,0 l/m 36,0 km/h (5 Bft) 0 min 0 min
16.03.2019 12:06 21,0 C 12,1 C 7,8 C 67 % 19 % 1015 hPa 0,0 l/m 33,4 km/h (5 Bft) 0 min 0 min
16.03.2019 12:09 21,0 C 12,1 C 7,9 C 68 % 20 % 1015 hPa 0,0 l/m 36,8 km/h (5 Bft) 0 min 0 min
16.03.2019 12:12 20,9 C 12,1 C 7,9 C 67 % 23 % 1015 hPa 0,0 l/m 45,7 km/h (6 Bft) 0 min 0 min
16.03.2019 12:15 21,0 C 12,1 C 8,1 C 67 % 23 % 1015 hPa 0,0 l/m 34,5 km/h (5 Bft) 0 min 0 min
16.03.2019 12:18 21,0 C 12,2 C 8,1 C 67 % 27 % 1015 hPa 0,0 l/m 34,2 km/h (5 Bft) 0 min 0 min
16.03.2019 12:21 21,0 C 12,3 C 8,2 C 66 % 25 % 1015 hPa 0,0 l/m 37,4 km/h (5 Bft) 0 min 0 min
16.03.2019 12:24 21,0 C 12,3 C 8,2 C 67 % 22 % 1015 hPa 0,0 l/m 33,1 km/h (5 Bft) 0 min 0 min
16.03.2019 12:27 21,0 C 12,4 C 8,2 C 67 % 23 % 1015 hPa 0,0 l/m 23,5 km/h (4 Bft) 0 min 0 min
16.03.2019 12:30 21,0 C 12,4 C 8,1 C 67 % 23 % 1015 hPa 0,0 l/m 38,3 km/h (5 Bft) 0 min 0 min
16.03.2019 12:33 21,1 C 12,3 C 8,1 C 66 % 19 % 1015 hPa 0,0 l/m 43,6 km/h (6 Bft) 0 min 0 min
16.03.2019 12:36 21,0 C 12,3 C 8,0 C 67 % 15 % 1015 hPa 0,0 l/m 28,7 km/h (4 Bft) 0 min 0 min
16.03.2019 12:39 21,0 C 12,2 C 8,0 C 67 % 14 % 1015 hPa 0,0 l/m 33,2 km/h (5 Bft) 0 min 0 min
16.03.2019 12:42 21,0 C 12,2 C 8,0 C 67 % 12 % 1015 hPa 0,0 l/m 29,3 km/h (5 Bft) 0 min 0 min
16.03.2019 12:45 21,1 C 12,1 C 8,0 C 68 % 13 % 1015 hPa 0,0 l/m 28,6 km/h (4 Bft) 0 min 0 min
16.03.2019 12:48 21,1 C 12,0 C 7,8 C 68 % 13 % 1015 hPa 0,0 l/m 29,1 km/h (5 Bft) 0 min 0 min
16.03.2019 12:51 21,1 C 12,1 C 8,0 C 67 % 19 % 1015 hPa 0,0 l/m 40,3 km/h (6 Bft) 0 min 0 min
16.03.2019 12:54 21,0 C 12,0 C 8,0 C 67 % 19 % 1015 hPa 0,0 l/m 37,1 km/h (5 Bft) 0 min 0 min
16.03.2019 12:57 21,0 C 12,1 C 8,0 C 68 % 20 % 1015 hPa 0,0 l/m 34,9 km/h (5 Bft) 0 min 0 min
16.03.2019 13:00 21,1 C 12,0 C 8,0 C 70 % 18 % 1015 hPa 0,0 l/m 30,6 km/h (5 Bft) 0 min 0 min
16.03.2019 13:03 21,1 C 12,0 C 8,0 C 69 % 19 % 1015 hPa 0,0 l/m 22,6 km/h (4 Bft) 0 min 0 min
16.03.2019 13:06 21,1 C 12,0 C 8,0 C 69 % 22 % 1015 hPa 0,0 l/m 33,6 km/h (5 Bft) 0 min 0 min
16.03.2019 13:09 21,1 C 12,1 C 8,0 C 67 % 20 % 1015 hPa 0,0 l/m 30,0 km/h (5 Bft) 0 min 0 min
16.03.2019 13:12 21,0 C 12,1 C 8,1 C 67 % 18 % 1015 hPa 0,0 l/m 37,2 km/h (5 Bft) 0 min 0 min
16.03.2019 13:15 21,1 C 12,1 C 8,1 C 66 % 19 % 1015 hPa 0,0 l/m 37,2 km/h (5 Bft) 0 min 0 min
16.03.2019 13:18 21,1 C 12,1 C 8,1 C 66 % 23 % 1015 hPa 0,0 l/m 42,4 km/h (6 Bft) 0 min 0 min
16.03.2019 13:21 21,0 C 12,2 C 8,2 C 65 % 23 % 1015 hPa 0,0 l/m 39,1 km/h (6 Bft) 0 min 0 min
16.03.2019 13:24 21,1 C 12,2 C 8,3 C 66 % 27 % 1015 hPa 0,0 l/m 28,1 km/h (4 Bft) 0 min 0 min
16.03.2019 13:27 21,1 C 12,2 C 8,3 C 66 % 28 % 1015 hPa 0,0 l/m 28,1 km/h (4 Bft) 0 min 0 min
16.03.2019 13:30 21,1 C 12,3 C 8,3 C 65 % 27 % 1014 hPa 0,0 l/m 39,4 km/h (6 Bft) 0 min 0 min
16.03.2019 13:33 21,1 C 12,4 C 8,2 C 65 % 28 % 1014 hPa 0,0 l/m 26,2 km/h (4 Bft) 0 min 0 min
16.03.2019 13:36 21,0 C 12,4 C 8,3 C 65 % 29 % 1014 hPa 0,0 l/m 38,4 km/h (5 Bft) 0 min 0 min
16.03.2019 13:39 21,1 C 12,4 C 8,1 C 65 % 32 % 1014 hPa 0,0 l/m 31,8 km/h (5 Bft) 0 min 0 min
16.03.2019 13:42 21,0 C 12,4 C 8,2 C 65 % 32 % 1014 hPa 0,0 l/m 32,7 km/h (5 Bft) 0 min 0 min
16.03.2019 13:45 21,0 C 12,6 C 8,3 C 64 % 34 % 1014 hPa 0,0 l/m 35,6 km/h (5 Bft) 0 min 0 min
16.03.2019 13:48 21,0 C 12,8 C 8,2 C 65 % 34 % 1014 hPa 0,0 l/m 35,8 km/h (5 Bft) 0 min 0 min
16.03.2019 13:51 21,0 C 12,8 C 8,3 C 63 % 34 % 1014 hPa 0,0 l/m 33,4 km/h (5 Bft) 0 min 0 min
16.03.2019 13:54 21,0 C 12,9 C 8,2 C 63 % 37 % 1014 hPa 0,0 l/m 30,1 km/h (5 Bft) 0 min 0 min
16.03.2019 13:57 21,0 C 13,0 C 8,5 C 63 % 39 % 1014 hPa 0,0 l/m 35,6 km/h (5 Bft) 0 min 0 min
16.03.2019 14:00 21,0 C 13,2 C 8,6 C 64 % 39 % 1014 hPa 0,0 l/m 35,6 km/h (5 Bft) 0 min 0 min
16.03.2019 14:03 21,0 C 13,3 C 8,6 C 61 % 45 % 1014 hPa 0,0 l/m 44,7 km/h (6 Bft) 0 min 0 min
16.03.2019 14:06 21,1 C 13,4 C 8,6 C 60 % 59 % 1014 hPa 0,0 l/m 36,3 km/h (5 Bft) 3 min 0 min
16.03.2019 14:09 21,1 C 13,6 C 9,0 C 61 % 76 % 1014 hPa 0,0 l/m 39,6 km/h (6 Bft) 3 min 0 min
16.03.2019 14:12 21,1 C 14,0 C 9,3 C 60 % 72 % 1014 hPa 0,0 l/m 34,3 km/h (5 Bft) 3 min 0 min
16.03.2019 14:15 21,1 C 14,0 C 9,1 C 60 % 75 % 1014 hPa 0,0 l/m 37,1 km/h (5 Bft) 3 min 0 min
16.03.2019 14:18 21,1 C 14,3 C 9,5 C 59 % 72 % 1014 hPa 0,0 l/m 37,1 km/h (5 Bft) 3 min 0 min
16.03.2019 14:21 21,0 C 14,4 C 9,3 C 58 % 46 % 1014 hPa 0,0 l/m 26,5 km/h (4 Bft) 0 min 0 min
16.03.2019 14:24 21,1 C 14,3 C 9,3 C 59 % 44 % 1014 hPa 0,0 l/m 26,8 km/h (4 Bft) 0 min 0 min
16.03.2019 14:27 21,1 C 14,3 C 9,1 C 59 % 42 % 1014 hPa 0,0 l/m 25,0 km/h (4 Bft) 0 min 0 min
16.03.2019 14:30 21,1 C 14,2 C 9,0 C 59 % 40 % 1014 hPa 0,0 l/m 30,5 km/h (5 Bft) 0 min 0 min
16.03.2019 14:33 21,1 C 14,1 C 8,9 C 58 % 45 % 1014 hPa 0,0 l/m 30,5 km/h (5 Bft) 0 min 0 min
16.03.2019 14:36 21,1 C 14,2 C 8,9 C 59 % 52 % 1014 hPa 0,0 l/m 30,0 km/h (5 Bft) 0 min 0 min
16.03.2019 14:39 21,1 C 14,2 C 9,2 C 59 % 55 % 1014 hPa 0,0 l/m 28,3 km/h (4 Bft) 3 min 0 min
16.03.2019 14:42 21,1 C 14,5 C 9,4 C 59 % 62 % 1014 hPa 0,0 l/m 25,3 km/h (4 Bft) 3 min 0 min
16.03.2019 14:45 21,1 C 14,6 C 9,4 C 57 % 70 % 1014 hPa 0,0 l/m 34,6 km/h (5 Bft) 3 min 0 min
16.03.2019 14:48 21,2 C 14,6 C 9,3 C 59 % 67 % 1014 hPa 0,0 l/m 35,3 km/h (5 Bft) 3 min 0 min
16.03.2019 14:51 21,2 C 14,6 C 9,3 C 58 % 58 % 1014 hPa 0,0 l/m 39,3 km/h (6 Bft) 3 min 0 min
16.03.2019 14:54 21,2 C 14,5 C 9,3 C 58 % 35 % 1014 hPa 0,0 l/m 20,8 km/h (4 Bft) 0 min 0 min
16.03.2019 14:57 21,2 C 14,3 C 8,9 C 58 % 29 % 1014 hPa 0,0 l/m 30,0 km/h (5 Bft) 0 min 0 min
16.03.2019 15:00 21,2 C 14,2 C 8,8 C 58 % 55 % 1014 hPa 0,0 l/m 32,7 km/h (5 Bft) 3 min 0 min
16.03.2019 15:03 21,2 C 14,5 C 9,2 C 59 % 69 % 1014 hPa 0,0 l/m 23,6 km/h (4 Bft) 3 min 0 min
16.03.2019 15:06 21,2 C 14,5 C 9,2 C 59 % 49 % 1014 hPa 0,0 l/m 26,6 km/h (4 Bft) 3 min 0 min
16.03.2019 15:09 21,2 C 14,7 C 9,2 C 58 % 40 % 1014 hPa 0,0 l/m 22,0 km/h (4 Bft) 0 min 0 min
16.03.2019 15:12 21,2 C 14,6 C 8,5 C 57 % 36 % 1013 hPa 0,0 l/m 25,4 km/h (4 Bft) 0 min 0 min
16.03.2019 15:15 21,2 C 14,5 C 8,7 C 57 % 35 % 1013 hPa 0,0 l/m 22,2 km/h (4 Bft) 0 min 0 min
16.03.2019 15:18 21,2 C 14,5 C 8,6 C 57 % 42 % 1013 hPa 0,0 l/m 19,5 km/h (3 Bft) 0 min 0 min
16.03.2019 15:21 21,2 C 14,5 C 8,5 C 56 % 54 % 1013 hPa 0,0 l/m 40,1 km/h (6 Bft) 3 min 0 min
16.03.2019 15:24 21,2 C 14,7 C 8,8 C 56 % 77 % 1013 hPa 0,0 l/m 30,7 km/h (5 Bft) 3 min 0 min
16.03.2019 15:27 21,2 C 15,0 C 9,0 C 57 % 75 % 1013 hPa 0,0 l/m 30,2 km/h (5 Bft) 3 min 0 min
16.03.2019 15:30 21,2 C 15,0 C 8,9 C 55 % 65 % 1013 hPa 0,0 l/m 32,1 km/h (5 Bft) 3 min 0 min
16.03.2019 15:33 21,2 C 15,0 C 9,2 C 54 % 63 % 1013 hPa 0,0 l/m 32,1 km/h (5 Bft) 3 min 0 min
16.03.2019 15:36 21,2 C 15,0 C 9,0 C 55 % 45 % 1013 hPa 0,0 l/m 23,7 km/h (4 Bft) 3 min 0 min
16.03.2019 15:39 21,2 C 15,0 C 8,8 C 56 % 45 % 1013 hPa 0,0 l/m 19,5 km/h (3 Bft) 3 min 0 min
16.03.2019 15:42 21,2 C 15,0 C 9,2 C 56 % 70 % 1013 hPa 0,0 l/m 21,1 km/h (4 Bft) 3 min 0 min
16.03.2019 15:45 21,2 C 15,3 C 9,1 C 56 % 59 % 1013 hPa 0,0 l/m 14,9 km/h (3 Bft) 3 min 0 min
16.03.2019 15:48 21,2 C 15,2 C 9,1 C 55 % 52 % 1013 hPa 0,0 l/m 26,0 km/h (4 Bft) 3 min 0 min
16.03.2019 15:51 21,2 C 15,1 C 8,9 C 55 % 39 % 1013 hPa 0,0 l/m 22,5 km/h (4 Bft) 3 min 0 min
16.03.2019 15:54 21,2 C 15,0 C 8,7 C 57 % 42 % 1013 hPa 0,0 l/m 24,3 km/h (4 Bft) 3 min 0 min
16.03.2019 15:57 21,3 C 14,9 C 8,5 C 55 % 35 % 1013 hPa 0,0 l/m 32,4 km/h (5 Bft) 0 min 0 min
16.03.2019 16:00 21,2 C 14,6 C 8,8 C 57 % 31 % 1013 hPa 0,0 l/m 17,1 km/h (3 Bft) 0 min 0 min
16.03.2019 16:03 21,2 C 14,6 C 8,6 C 55 % 32 % 1013 hPa 0,0 l/m 27,0 km/h (4 Bft) 0 min 0 min
16.03.2019 16:06 21,2 C 14,5 C 8,5 C 55 % 32 % 1013 hPa 0,0 l/m 34,8 km/h (5 Bft) 0 min 0 min
16.03.2019 16:09 21,2 C 14,4 C 8,3 C 56 % 32 % 1013 hPa 0,0 l/m 22,9 km/h (4 Bft) 0 min 0 min
16.03.2019 16:12 21,2 C 14,4 C 8,3 C 56 % 35 % 1013 hPa 0,0 l/m 22,9 km/h (4 Bft) 3 min 0 min
16.03.2019 16:15 21,2 C 14,3 C 8,3 C 56 % 53 % 1013 hPa 0,0 l/m 27,2 km/h (4 Bft) 3 min 0 min
16.03.2019 16:18 21,2 C 14,5 C 8,3 C 57 % 53 % 1013 hPa 0,0 l/m 24,6 km/h (4 Bft) 3 min 0 min
16.03.2019 16:21 21,2 C 14,9 C 8,7 C 56 % 79 % 1013 hPa 0,0 l/m 17,8 km/h (3 Bft) 3 min 0 min
16.03.2019 16:24 21,2 C 15,0 C 8,8 C 56 % 37 % 1013 hPa 0,0 l/m 20,4 km/h (4 Bft) 3 min 0 min
16.03.2019 16:27 21,2 C 15,0 C 9,0 C 55 % 79 % 1013 hPa 0,0 l/m 13,6 km/h (3 Bft) 3 min 0 min
16.03.2019 16:30 21,2 C 15,0 C 8,6 C 54 % 46 % 1013 hPa 0,0 l/m 29,3 km/h (5 Bft) 3 min 0 min
16.03.2019 16:33 21,2 C 14,8 C 8,6 C 55 % 24 % 1013 hPa 0,0 l/m 31,6 km/h (5 Bft) 0 min 0 min
16.03.2019 16:36 21,2 C 14,4 C 8,2 C 56 % 27 % 1013 hPa 0,0 l/m 21,5 km/h (4 Bft) 3 min 0 min
16.03.2019 16:39 21,2 C 14,2 C 8,2 C 56 % 31 % 1013 hPa 0,0 l/m 21,9 km/h (4 Bft) 3 min 0 min
16.03.2019 16:42 21,3 C 14,2 C 8,3 C 58 % 62 % 1013 hPa 0,0 l/m 19,0 km/h (3 Bft) 3 min 0 min
16.03.2019 16:45 21,2 C 14,2 C 8,1 C 57 % 25 % 1013 hPa 0,0 l/m 19,9 km/h (4 Bft) 3 min 0 min
16.03.2019 16:48 21,2 C 14,1 C 8,0 C 57 % 25 % 1013 hPa 0,0 l/m 25,3 km/h (4 Bft) 3 min 0 min
16.03.2019 16:51 21,2 C 14,0 C 7,8 C 58 % 69 % 1013 hPa 0,0 l/m 18,7 km/h (3 Bft) 3 min 0 min
16.03.2019 16:54 21,2 C 14,0 C 8,0 C 58 % 67 % 1013 hPa 0,0 l/m 17,1 km/h (3 Bft) 3 min 0 min
16.03.2019 16:57 21,2 C 14,3 C 7,9 C 58 % 15 % 1013 hPa 0,0 l/m 12,0 km/h (2 Bft) 0 min 0 min
16.03.2019 17:00 21,2 C 14,1 C 7,6 C 58 % 14 % 1013 hPa 0,0 l/m 12,6 km/h (3 Bft) 0 min 0 min
16.03.2019 17:03 21,2 C 13,8 C 7,8 C 59 % 15 % 1013 hPa 0,0 l/m 13,1 km/h (3 Bft) 0 min 0 min
16.03.2019 17:06 21,2 C 13,6 C 7,7 C 59 % 19 % 1013 hPa 0,0 l/m 9,8 km/h (2 Bft) 3 min 0 min
16.03.2019 17:09 21,2 C 13,6 C 7,6 C 59 % 25 % 1013 hPa 0,0 l/m 13,9 km/h (3 Bft) 3 min 0 min
16.03.2019 17:12 21,2 C 13,9 C 7,8 C 59 % 19 % 1013 hPa 0,0 l/m 15,5 km/h (3 Bft) 3 min 0 min
16.03.2019 17:15 21,2 C 14,0 C 7,8 C 59 % 20 % 1013 hPa 0,0 l/m 19,2 km/h (3 Bft) 3 min 0 min
16.03.2019 17:18 21,2 C 14,2 C 7,8 C 56 % 14 % 1013 hPa 0,0 l/m 19,2 km/h (3 Bft) 0 min 0 min
16.03.2019 17:21 21,2 C 14,0 C 7,9 C 58 % 16 % 1013 hPa 0,0 l/m 15,7 km/h (3 Bft) 3 min 0 min
16.03.2019 17:24 21,2 C 13,7 C 7,8 C 58 % 12 % 1013 hPa 0,0 l/m 15,5 km/h (3 Bft) 0 min 0 min
16.03.2019 17:27 21,2 C 13,6 C 7,6 C 59 % 13 % 1013 hPa 0,0 l/m 11,1 km/h (2 Bft) 3 min 0 min
16.03.2019 17:30 21,2 C 13,5 C 7,6 C 59 % 11 % 1013 hPa 0,0 l/m 13,1 km/h (3 Bft) 3 min 0 min
16.03.2019 17:33 21,2 C 13,4 C 7,6 C 59 % 11 % 1013 hPa 0,0 l/m 10,5 km/h (2 Bft) 3 min 0 min
16.03.2019 17:36 21,2 C 13,4 C 7,6 C 59 % 10 % 1013 hPa 0,0 l/m 8,9 km/h (2 Bft) 3 min 0 min
16.03.2019 17:39 21,1 C 13,4 C 7,4 C 60 % 10 % 1013 hPa 0,0 l/m 8,0 km/h (2 Bft) 3 min 0 min
16.03.2019 17:42 21,2 C 13,2 C 7,6 C 60 % 9 % 1013 hPa 0,0 l/m 5,6 km/h (1 Bft) 3 min 0 min
16.03.2019 17:45 21,1 C 13,2 C 7,6 C 60 % 8 % 1013 hPa 0,0 l/m 5,8 km/h (2 Bft) 3 min 0 min
16.03.2019 17:48 21,1 C 13,1 C 7,3 C 60 % 7 % 1013 hPa 0,0 l/m 4,9 km/h (1 Bft) 3 min 0 min
16.03.2019 17:51 21,1 C 13,0 C 7,3 C 61 % 6 % 1013 hPa 0,0 l/m 3,3 km/h (1 Bft) 3 min 0 min
16.03.2019 17:54 21,1 C 12,9 C 7,3 C 61 % 6 % 1013 hPa 0,0 l/m 2,1 km/h (1 Bft) 3 min 0 min
16.03.2019 17:57 21,1 C 12,8 C 7,0 C 62 % 4 % 1013 hPa 0,0 l/m 1,8 km/h (1 Bft) 3 min 0 min
16.03.2019 18:00 21,1 C 12,7 C 7,3 C 62 % 3 % 1013 hPa 0,0 l/m 1,2 km/h (1 Bft) 3 min 0 min
16.03.2019 18:03 21,1 C 12,6 C 7,1 C 62 % 2 % 1013 hPa 0,0 l/m 0,3 km/h (0 Bft) 0 min 0 min
16.03.2019 18:06 21,1 C 12,5 C 7,0 C 62 % 2 % 1013 hPa 0,0 l/m 0,3 km/h (0 Bft) 0 min 0 min
16.03.2019 18:09 21,1 C 12,4 C 6,9 C 62 % 1 % 1013 hPa 0,0 l/m 0,0 km/h (0 Bft) 0 min 0 min
16.03.2019 18:12 21,0 C 12,4 C 6,9 C 63 % 1 % 1013 hPa 0,0 l/m 0,0 km/h (0 Bft) 0 min 0 min
16.03.2019 18:15 21,0 C 12,4 C 6,9 C 63 % 1 % 1013 hPa 0,0 l/m 0,0 km/h (0 Bft) 0 min 0 min
16.03.2019 18:18 21,0 C 12,2 C 6,9 C 63 % 1 % 1013 hPa 0,0 l/m 0,0 km/h (0 Bft) 0 min 0 min
16.03.2019 18:21 21,0 C 12,2 C 6,8 C 64 % 0 % 1013 hPa 0,0 l/m 0,0 km/h (0 Bft) 0 min 0 min
16.03.2019 18:24 21,0 C 12,1 C 6,8 C 64 % 0 % 1013 hPa 0,0 l/m 0,0 km/h (0 Bft) 0 min 0 min
16.03.2019 18:27 21,0 C 12,1 C 6,8 C 64 % 0 % 1013 hPa 0,0 l/m 0,0 km/h (0 Bft) 0 min 0 min
16.03.2019 18:30 21,0 C 12,0 C 6,8 C 65 % 0 % 1013 hPa 0,0 l/m 0,0 km/h (0 Bft) 0 min 0 min
16.03.2019 18:33 21,1 C 12,0 C 6,7 C 65 % 0 % 1013 hPa 0,0 l/m 0,0 km/h (0 Bft) 0 min 0 min
16.03.2019 18:36 21,0 C 11,8 C 6,6 C 66 % 0 % 1013 hPa 0,0 l/m 0,0 km/h (0 Bft) 0 min 0 min
16.03.2019 18:39 21,0 C 11,6 C 6,5 C 66 % 0 % 1013 hPa 0,0 l/m 0,0 km/h (0 Bft) 0 min 0 min
16.03.2019 18:42 21,0 C 11,6 C 6,3 C 66 % 0 % 1013 hPa 0,0 l/m 0,0 km/h (0 Bft) 0 min 0 min
16.03.2019 18:45 21,0 C 11,4 C 6,2 C 66 % 0 % 1013 hPa 0,0 l/m 0,0 km/h (0 Bft) 0 min 0 min
16.03.2019 18:48 21,0 C 11,2 C 6,0 C 66 % 0 % 1013 hPa 0,0 l/m 0,0 km/h (0 Bft) 0 min 0 min
16.03.2019 18:51 21,0 C 11,1 C 5,6 C 67 % 0 % 1013 hPa 0,0 l/m 0,0 km/h (0 Bft) 0 min 0 min
16.03.2019 18:54 21,0 C 10,8 C 5,7 C 68 % 0 % 1013 hPa 0,0 l/m 0,0 km/h (0 Bft) 0 min 0 min
16.03.2019 18:57 21,0 C 10,8 C 5,5 C 68 % 0 % 1013 hPa 0,0 l/m 0,0 km/h (0 Bft) 0 min 0 min
16.03.2019 19:00 21,0 C 10,5 C 5,5 C 68 % 0 % 1013 hPa 0,0 l/m 0,0 km/h (0 Bft) 0 min 0 min
16.03.2019 19:03 21,0 C 10,4 C 5,5 C 69 % 0 % 1013 hPa 0,0 l/m 0,0 km/h (0 Bft) 0 min 0 min
16.03.2019 19:06 21,0 C 10,4 C 5,4 C 69 % 0 % 1013 hPa 0,0 l/m 0,0 km/h (0 Bft) 0 min 0 min
16.03.2019 19:09 21,0 C 10,1 C 5,4 C 69 % 0 % 1013 hPa 0,0 l/m 0,0 km/h (0 Bft) 0 min 0 min
16.03.2019 19:12 21,0 C 10,0 C 5,2 C 70 % 0 % 1013 hPa 0,0 l/m 0,0 km/h (0 Bft) 0 min 0 min
16.03.2019 19:15 21,0 C 9,8 C 5,1 C 70 % 0 % 1013 hPa 0,0 l/m 0,0 km/h (0 Bft) 0 min 0 min
16.03.2019 19:18 21,0 C 9,6 C 5,1 C 71 % 0 % 1013 hPa 0,0 l/m 0,0 km/h (0 Bft) 0 min 0 min
16.03.2019 19:21 21,0 C 9,5 C 5,1 C 71 % 0 % 1013 hPa 0,0 l/m 0,0 km/h (0 Bft) 0 min 0 min
16.03.2019 19:24 21,0 C 9,4 C 5,0 C 72 % 0 % 1013 hPa 0,0 l/m 0,0 km/h (0 Bft) 0 min 0 min
16.03.2019 19:27 21,0 C 9,2 C 4,9 C 71 % 0 % 1013 hPa 0,0 l/m 0,0 km/h (0 Bft) 0 min 0 min
16.03.2019 19:30 21,0 C 9,1 C 4,9 C 72 % 0 % 1013 hPa 0,0 l/m 0,0 km/h (0 Bft) 0 min 0 min
16.03.2019 19:33 21,0 C 8,9 C 4,7 C 72 % 0 % 1013 hPa 0,0 l/m 0,0 km/h (0 Bft) 0 min 0 min
16.03.2019 19:36 21,0 C 8,8 C 4,3 C 73 % 0 % 1013 hPa 0,0 l/m 0,0 km/h (0 Bft) 0 min 0 min
16.03.2019 19:39 21,0 C 8,7 C 4,4 C 73 % 0 % 1013 hPa 0,0 l/m 0,0 km/h (0 Bft) 0 min 0 min
16.03.2019 19:42 21,0 C 8,7 C 4,5 C 74 % 0 % 1013 hPa 0,0 l/m 0,0 km/h (0 Bft) 0 min 0 min
16.03.2019 19:45 21,0 C 8,6 C 4,2 C 74 % 0 % 1012 hPa 0,0 l/m 0,0 km/h (0 Bft) 0 min 0 min
16.03.2019 19:48 21,0 C 8,4 C 4,4 C 74 % 0 % 1012 hPa 0,0 l/m 0,0 km/h (0 Bft) 0 min 0 min
16.03.2019 19:51 21,0 C 8,4 C 3,9 C 74 % 0 % 1012 hPa 0,0 l/m 0,0 km/h (0 Bft) 0 min 0 min
16.03.2019 19:54 21,0 C 8,2 C 4,0 C 75 % 0 % 1012 hPa 0,0 l/m 0,0 km/h (0 Bft) 0 min 0 min
16.03.2019 19:57 21,0 C 8,1 C 3,8 C 76 % 0 % 1012 hPa 0,0 l/m 0,0 km/h (0 Bft) 0 min 0 min
16.03.2019 20:00 21,0 C 8,0 C 3,9 C 76 % 0 % 1012 hPa 0,0 l/m 0,0 km/h (0 Bft) 0 min 0 min
16.03.2019 20:03 21,0 C 7,9 C 4,0 C 76 % 0 % 1012 hPa 0,0 l/m 0,0 km/h (0 Bft) 0 min 0 min
16.03.2019 20:06 21,0 C 7,9 C 3,7 C 76 % 0 % 1012 hPa 0,0 l/m 0,0 km/h (0 Bft) 0 min 0 min
16.03.2019 20:09 21,0 C 7,7 C 3,6 C 76 % 0 % 1012 hPa 0,0 l/m 0,0 km/h (0 Bft) 0 min 0 min
16.03.2019 20:12 21,0 C 7,7 C 3,8 C 76 % 0 % 1012 hPa 0,0 l/m 0,0 km/h (0 Bft) 0 min 0 min
16.03.2019 20:15 21,0 C 7,6 C 3,5 C 78 % 0 % 1012 hPa 0,0 l/m 0,0 km/h (0 Bft) 0 min 0 min
16.03.2019 20:18 21,0 C 7,5 C 3,6 C 78 % 0 % 1012 hPa 0,0 l/m 0,0 km/h (0 Bft) 0 min 0 min
16.03.2019 20:21 21,0 C 7,3 C 3,5 C 78 % 0 % 1012 hPa 0,0 l/m 0,0 km/h (0 Bft) 0 min 0 min
16.03.2019 20:24 21,0 C 7,2 C 3,3 C 79 % 1 % 1012 hPa 0,0 l/m 0,0 km/h (0 Bft) 0 min 0 min
16.03.2019 20:27 21,0 C 7,2 C 3,3 C 81 % 1 % 1012 hPa 0,0 l/m 0,0 km/h (0 Bft) 0 min 0 min
16.03.2019 20:30 21,0 C 7,2 C 3,5 C 81 % 1 % 1012 hPa 0,0 l/m 0,0 km/h (0 Bft) 0 min 0 min
16.03.2019 20:33 21,0 C 7,2 C 3,5 C 81 % 1 % 1012 hPa 0,0 l/m 0,0 km/h (0 Bft) 0 min 0 min
16.03.2019 20:36 21,0 C 7,2 C 3,1 C 80 % 1 % 1012 hPa 0,0 l/m 0,0 km/h (0 Bft) 0 min 0 min
16.03.2019 20:39 21,0 C 7,0 C 3,4 C 80 % 1 % 1012 hPa 0,0 l/m 0,0 km/h (0 Bft) 0 min 0 min
16.03.2019 20:42 21,0 C 6,9 C 3,1 C 80 % 1 % 1012 hPa 0,0 l/m 0,0 km/h (0 Bft) 0 min 0 min
16.03.2019 20:45 21,0 C 6,8 C 3,3 C 80 % 1 % 1012 hPa 0,0 l/m 0,0 km/h (0 Bft) 0 min 0 min
16.03.2019 20:48 21,0 C 6,8 C 2,8 C 80 % 1 % 1012 hPa 0,0 l/m 0,0 km/h (0 Bft) 0 min 0 min
16.03.2019 20:51 21,0 C 6,7 C 3,0 C 81 % 1 % 1012 hPa 0,0 l/m 0,0 km/h (0 Bft) 0 min 0 min
16.03.2019 20:54 21,0 C 6,6 C 3,2 C 80 % 1 % 1012 hPa 0,0 l/m 0,0 km/h (0 Bft) 0 min 0 min
16.03.2019 20:57 21,0 C 6,4 C 3,1 C 80 % 1 % 1012 hPa 0,0 l/m 0,0 km/h (0 Bft) 0 min 0 min
16.03.2019 21:00 21,0 C 6,4 C 3,0 C 80 % 1 % 1012 hPa 0,0 l/m 0,7 km/h (0 Bft) 0 min 0 min
16.03.2019 21:03 21,0 C 6,3 C 2,9 C 81 % 1 % 1012 hPa 0,0 l/m 0,0 km/h (0 Bft) 0 min 0 min
16.03.2019 21:06 21,0 C 6,3 C 2,9 C 81 % 1 % 1012 hPa 0,0 l/m 0,0 km/h (0 Bft) 0 min 0 min
16.03.2019 21:09 21,0 C 6,2 C 2,8 C 81 % 1 % 1012 hPa 0,0 l/m 0,1 km/h (0 Bft) 0 min 0 min
16.03.2019 21:12 21,0 C 6,1 C 2,9 C 81 % 1 % 1012 hPa 0,0 l/m 1,9 km/h (1 Bft) 0 min 0 min
16.03.2019 21:15 21,0 C 6,0 C 2,6 C 81 % 1 % 1012 hPa 0,0 l/m 0,0 km/h (0 Bft) 0 min 0 min
16.03.2019 21:18 21,0 C 6,0 C 2,8 C 82 % 1 % 1012 hPa 0,0 l/m 0,0 km/h (0 Bft) 0 min 0 min
16.03.2019 21:21 21,1 C 5,9 C 2,8 C 82 % 1 % 1012 hPa 0,0 l/m 0,0 km/h (0 Bft) 0 min 0 min
16.03.2019 21:24 21,1 C 5,8 C 2,7 C 81 % 1 % 1012 hPa 0,0 l/m 0,0 km/h (0 Bft) 0 min 0 min
16.03.2019 21:27 21,1 C 5,6 C 2,8 C 82 % 1 % 1012 hPa 0,0 l/m 2,2 km/h (1 Bft) 0 min 0 min
16.03.2019 21:30 21,1 C 5,6 C 2,5 C 82 % 1 % 1012 hPa 0,0 l/m 0,0 km/h (0 Bft) 0 min 0 min
16.03.2019 21:33 21,0 C 5,5 C 2,6 C 82 % 1 % 1012 hPa 0,0 l/m 3,7 km/h (1 Bft) 0 min 0 min
16.03.2019 21:36 21,0 C 5,6 C 2,7 C 83 % 1 % 1012 hPa 0,0 l/m 0,7 km/h (0 Bft) 0 min 0 min
16.03.2019 21:39 21,0 C 5,5 C 2,4 C 83 % 1 % 1012 hPa 0,0 l/m 0,1 km/h (0 Bft) 0 min 0 min
16.03.2019 21:42 21,1 C 5,6 C 2,4 C 85 % 1 % 1012 hPa 0,0 l/m 0,0 km/h (0 Bft) 0 min 0 min
16.03.2019 21:45 21,1 C 5,6 C 2,3 C 85 % 1 % 1012 hPa 0,0 l/m 0,0 km/h (0 Bft) 0 min 0 min
16.03.2019 21:48 21,0 C 5,6 C 2,4 C 85 % 1 % 1012 hPa 0,0 l/m 0,0 km/h (0 Bft) 0 min 0 min
16.03.2019 21:51 21,0 C 5,6 C 2,4 C 85 % 1 % 1012 hPa 0,0 l/m 0,1 km/h (0 Bft) 0 min 0 min
16.03.2019 21:54 21,0 C 5,6 C 3,0 C 84 % 1 % 1012 hPa 0,0 l/m 0,0 km/h (0 Bft) 0 min 0 min
16.03.2019 21:57 21,0 C 5,6 C 2,2 C 84 % 1 % 1012 hPa 0,0 l/m 0,0 km/h (0 Bft) 0 min 0 min
16.03.2019 22:00 21,0 C 5,6 C 2,4 C 84 % 1 % 1012 hPa 0,0 l/m 0,9 km/h (0 Bft) 0 min 0 min
16.03.2019 22:03 21,1 C 5,3 C 2,3 C 84 % 2 % 1012 hPa 0,0 l/m 1,6 km/h (1 Bft) 0 min 0 min
16.03.2019 22:06 21,1 C 5,3 C 2,4 C 84 % 2 % 1012 hPa 0,0 l/m 0,0 km/h (0 Bft) 0 min 0 min
16.03.2019 22:09 21,1 C 5,3 C 2,3 C 84 % 2 % 1012 hPa 0,0 l/m 0,0 km/h (0 Bft) 0 min 0 min
16.03.2019 22:12 21,1 C 5,2 C 2,3 C 84 % 2 % 1012 hPa 0,0 l/m 0,0 km/h (0 Bft) 0 min 0 min
16.03.2019 22:15 21,1 C 5,1 C 2,1 C 84 % 2 % 1012 hPa 0,0 l/m 0,0 km/h (0 Bft) 0 min 0 min
16.03.2019 22:18 21,1 C 5,1 C 2,1 C 84 % 2 % 1012 hPa 0,0 l/m 0,0 km/h (0 Bft) 0 min 0 min
16.03.2019 22:21 21,1 C 4,9 C 2,2 C 83 % 2 % 1012 hPa 0,0 l/m 0,0 km/h (0 Bft) 0 min 0 min
16.03.2019 22:24 21,1 C 4,9 C 2,2 C 84 % 2 % 1012 hPa 0,0 l/m 0,0 km/h (0 Bft) 0 min 0 min
16.03.2019 22:27 21,1 C 4,8 C 2,0 C 84 % 2 % 1012 hPa 0,0 l/m 0,0 km/h (0 Bft) 0 min 0 min
16.03.2019 22:30 21,1 C 4,7 C 1,7 C 84 % 2 % 1012 hPa 0,0 l/m 0,1 km/h (0 Bft) 0 min 0 min
16.03.2019 22:33 21,1 C 4,7 C 1,8 C 84 % 2 % 1012 hPa 0,0 l/m 0,1 km/h (0 Bft) 0 min 0 min
16.03.2019 22:36 21,1 C 4,6 C 1,7 C 85 % 2 % 1012 hPa 0,0 l/m 0,1 km/h (0 Bft) 0 min 0 min
16.03.2019 22:39 21,1 C 4,6 C 1,9 C 85 % 2 % 1012 hPa 0,0 l/m 0,2 km/h (0 Bft) 0 min 0 min
16.03.2019 22:42 21,1 C 4,6 C 1,7 C 84 % 2 % 1012 hPa 0,0 l/m 0,0 km/h (0 Bft) 0 min 0 min
16.03.2019 22:45 21,1 C 4,5 C 1,5 C 84 % 2 % 1012 hPa 0,0 l/m 0,0 km/h (0 Bft) 0 min 0 min
16.03.2019 22:48 21,1 C 4,4 C 1,5 C 84 % 2 % 1012 hPa 0,0 l/m 0,0 km/h (0 Bft) 0 min 0 min
16.03.2019 22:51 21,1 C 4,3 C 1,7 C 84 % 2 % 1012 hPa 0,0 l/m 0,0 km/h (0 Bft) 0 min 0 min
16.03.2019 22:54 21,2 C 4,3 C 1,7 C 84 % 2 % 1012 hPa 0,0 l/m 0,0 km/h (0 Bft) 0 min 0 min
16.03.2019 22:57 21,1 C 4,2 C 1,5 C 84 % 2 % 1012 hPa 0,0 l/m 0,0 km/h (0 Bft) 0 min 0 min
16.03.2019 23:00 21,2 C 4,1 C 1,5 C 84 % 2 % 1012 hPa 0,0 l/m 0,0 km/h (0 Bft) 0 min 0 min
16.03.2019 23:03 21,2 C 4,1 C 1,6 C 85 % 2 % 1012 hPa 0,0 l/m 0,0 km/h (0 Bft) 0 min 0 min
16.03.2019 23:06 21,2 C 4,1 C 1,5 C 85 % 2 % 1012 hPa 0,0 l/m 0,0 km/h (0 Bft) 0 min 0 min
16.03.2019 23:09 21,2 C 3,9 C 1,4 C 84 % 2 % 1012 hPa 0,0 l/m 0,0 km/h (0 Bft) 0 min 0 min
16.03.2019 23:12 21,2 C 3,9 C 1,2 C 84 % 2 % 1012 hPa 0,0 l/m 0,0 km/h (0 Bft) 0 min 0 min
16.03.2019 23:15 21,2 C 3,8 C 1,4 C 84 % 2 % 1012 hPa 0,0 l/m 0,0 km/h (0 Bft) 0 min 0 min
16.03.2019 23:18 21,2 C 3,7 C 1,4 C 85 % 2 % 1012 hPa 0,0 l/m 0,0 km/h (0 Bft) 0 min 0 min
16.03.2019 23:21 21,2 C 3,6 C 1,2 C 85 % 2 % 1012 hPa 0,0 l/m 0,0 km/h (0 Bft) 0 min 0 min
16.03.2019 23:24 21,2 C 3,6 C 1,0 C 85 % 2 % 1012 hPa 0,0 l/m 0,0 km/h (0 Bft) 0 min 0 min
16.03.2019 23:27 21,2 C 3,5 C 0,8 C 85 % 2 % 1012 hPa 0,0 l/m 0,0 km/h (0 Bft) 0 min 0 min
16.03.2019 23:30 21,2 C 3,4 C 1,1 C 85 % 2 % 1012 hPa 0,0 l/m 0,0 km/h (0 Bft) 0 min 0 min
16.03.2019 23:33 21,2 C 3,4 C 1,1 C 85 % 2 % 1012 hPa 0,0 l/m 0,0 km/h (0 Bft) 0 min 0 min
16.03.2019 23:36 21,2 C 3,3 C 1,0 C 85 % 2 % 1012 hPa 0,0 l/m 0,0 km/h (0 Bft) 0 min 0 min
16.03.2019 23:39 21,1 C 3,2 C 1,2 C 85 % 2 % 1012 hPa 0,0 l/m 0,0 km/h (0 Bft) 0 min 0 min
16.03.2019 23:42 21,1 C 3,2 C 0,7 C 85 % 2 % 1012 hPa 0,0 l/m 0,0 km/h (0 Bft) 0 min 0 min
16.03.2019 23:45 21,1 C 3,2 C 1,0 C 86 % 2 % 1012 hPa 0,0 l/m 0,0 km/h (0 Bft) 0 min 0 min
16.03.2019 23:48 21,2 C 3,2 C 0,9 C 86 % 2 % 1012 hPa 0,0 l/m 0,0 km/h (0 Bft) 0 min 0 min
16.03.2019 23:51 21,1 C 3,1 C 1,0 C 86 % 2 % 1012 hPa 0,0 l/m 0,0 km/h (0 Bft) 0 min 0 min
16.03.2019 23:54 21,1 C 3,1 C 0,9 C 86 % 2 % 1012 hPa 0,0 l/m 0,0 km/h (0 Bft) 0 min 0 min
16.03.2019 23:57 21,1 C 3,1 C 0,7 C 86 % 2 % 1012 hPa 0,0 l/m 0,0 km/h (0 Bft) 0 min 0 min
_ Min-Zeit 00:03 23:51 23:42 15:33 - 00:00 - 18:09 - -
Minimum _ 19,6 C 3,1 C 0,7 C 54 % - 1010 hPa - 0,0 km/h (0 Bft) - -
_ Max-Zeit 00:42 15:45 14:18 23:45 16:21 10:15 00:00 00:03 06:30 00:00
Maximum _ 22,0 C 15,3 C 9,5 C 86 % 79 % 1015 hPa 0,0 l/m 64,5 km/h
N-NO (8 Bft)
3 min 0 min
Durchschnitt _ 21,2 C 10,6 C 6,4 C 72 % #2:54 h 1013 hPa #0,0 l/m 28,4 km/h (4 Bft) #2:54 h #0 min.